FW5336 Weather Reports


Display with metric or nautical units.
time (UTC)temp
F
wind
direction
speed
MPH
gust
MPH
rain 1hr
in
rain 24hr
in
rain mn
in
humidity
%
barometer
mb
20260905083522 70 57 0.0 1.0 0.00 0.00 0.00 94 1015.4
20260905083019 70 236 0.0 1.0 0.00 0.00 0.00 94 1015.4
20260905082514 70 232 0.0 1.0 0.00 0.00 0.00 94 1015.4
20260905082009 71 236 0.0 1.0 0.00 0.00 0.00 94 1015.2
20260905081508 71 199 0.0 1.0 0.00 0.00 0.00 94 1015.5
20260905081003 71 242 0.0 0.0 0.00 0.00 0.00 94 1015.4
20260905080458 71 252 0.0 0.0 0.00 0.00 0.00 94 1015.7
20260905075956 71 256 0.0 0.0 0.00 0.00 0.00 94 1015.7
20260905075451 71 249 0.0 0.0 0.00 0.00 0.00 94 1015.9
20260905074950 71 14 0.0 0.0 0.00 0.00 0.00 94 1015.7
20260905074446 71 301 0.0 1.0 0.00 0.00 0.00 94 1015.8
20260905073942 71 238 0.0 0.0 0.00 0.00 0.00 94 1015.7
20260905073436 71 241 0.0 0.0 0.00 0.00 0.00 94 1015.9
20260905072932 71 241 0.0 0.0 0.00 0.00 0.00 94 1016.0
20260905072427 71 239 0.0 0.0 0.00 0.00 0.00 94 1015.9
20260905071923 71 235 0.0 0.0 0.00 0.00 0.00 93 1015.9
20260905071420 71 242 0.0 0.0 0.00 0.00 0.00 93 1015.7
20260905070918 72 242 0.0 0.0 0.00 0.00 0.00 93 1015.7
20260905070415 72 327 0.0 0.0 0.00 0.00 0.00 93 1015.6
20260905065915 72 312 0.0 0.0 0.00 0.00 0.00 93 1015.8
20260905065413 72 225 1.0 1.0 0.00 0.00 0.00 93 1015.7
20260905064908 71 198 0.0 0.0 0.00 0.00 0.00 93 1015.5
20260905064403 71 178 1.0 3.0 0.00 0.00 0.00 93 1015.5
20260905063903 72 193 3.0 3.0 0.00 0.00 0.00 93 1015.4
20260905063358 72 236 0.0 1.0 0.00 0.00 0.00 94 1015.5
20260905062854 72 225 0.0 1.0 0.00 0.00 0.00 94 1015.7
20260905062353 72 160 1.0 2.0 0.00 0.00 0.00 94 1015.5
20260905061848 72 249 0.0 1.0 0.00 0.00 0.00 94 1015.5
20260905061343 72 217 2.0 3.0 0.00 0.00 0.00 94 1015.4
20260905060837 72 176 1.0 2.0 0.00 0.00 0.00 94 1015.6
20260905060335 72 188 1.0 3.0 0.00 0.00 0.00 94 1015.4
20260905055833 72 87 1.0 3.0 0.00 0.00 0.00 94 1015.4
20260905055328 72 235 0.0 1.0 0.00 0.00 0.00 94 1015.6
20260905054828 72 322 0.0 0.0 0.00 0.00 0.00 94 1015.9
20260905054325 72 281 0.0 0.0 0.00 0.00 0.00 94 1016.1
20260905053824 72 242 0.0 1.0 0.00 0.00 0.00 94 1016.1
20260905053319 72 249 0.0 0.0 0.00 0.00 0.00 94 1016.2
20260905052814 72 242 0.0 0.0 0.00 0.00 0.00 94 1016.0
20260905052313 72 249 0.0 0.0 0.00 0.00 0.00 94 1015.9
20260905051813 72 242 0.0 0.0 0.00 0.00 0.00 94 1015.9
20260905051309 72 239 0.0 1.0 0.00 0.00 0.00 94 1016.0
20260905050806 72 221 1.0 1.0 0.00 0.00 0.00 94 1015.9
20260905050302 72 322 0.0 1.0 0.00 0.00 0.00 94 1015.8
20260905045757 72 232 0.0 0.0 0.00 0.00 0.00 93 1015.9
20260905045252 72 240 0.0 0.0 0.00 0.00 0.00 93 1016.2
20260905044747 73 256 0.0 0.0 0.00 0.00 0.00 93 1016.1
20260905044242 73 229 0.0 1.0 0.00 0.00 0.00 93 1016.3
20260905043741 73 225 0.0 0.0 0.00 0.00 0.00 93 1016.2
20260905043236 73 336 0.0 1.0 0.00 0.00 0.00 93 1016.4
20260905042731 73 287 0.0 0.0 0.00 0.00 0.00 93 1016.4
20260905042230 73 242 0.0 1.0 0.00 0.00 0.00 93 1016.3
20260905041726 74 284 0.0 0.0 0.00 0.00 0.00 93 1016.4
20260905041221 74 197 0.0 1.0 0.00 0.00 0.00 93 1016.3
20260905040716 74 231 0.0 2.0 0.00 0.00 0.00 93 1016.3
20260905040215 74 225 0.0 0.0 0.00 0.00 0.00 93 1016.2
20260905035715 74 237 0.0 0.0 0.00 0.81 0.81 92 1016.3
20260905035211 74 249 0.0 0.0 0.00 0.81 0.81 92 1016.4
20260905034707 74 249 0.0 1.0 0.00 0.81 0.81 92 1016.4
20260905034207 74 266 0.0 0.0 0.00 0.81 0.81 92 1016.5
20260905033705 74 248 0.0 0.0 0.00 0.81 0.81 93 1016.3
20260905033201 74 245 0.0 0.0 0.00 0.81 0.81 93 1016.5
20260905032701 74 239 0.0 0.0 0.00 0.81 0.81 93 1016.7
20260905032155 74 268 0.0 1.0 0.00 0.81 0.81 93 1016.9
20260905031651 74 272 0.0 0.0 0.00 0.81 0.81 94 1016.9
20260905031146 74 279 0.0 0.0 0.00 0.81 0.81 94 1016.9
20260905030641 73 248 0.0 0.0 0.00 0.81 0.81 94 1016.7
20260905030137 73 248 0.0 0.0 0.00 0.81 0.81 95 1016.9
20260905025632 73 248 0.0 0.0 0.00 0.81 0.81 95 1016.7
20260905025128 73 255 0.0 0.0 0.00 0.81 0.81 95 1016.9
20260905024624 73 249 0.0 0.0 0.00 0.81 0.81 95 1016.9
20260905024118 73 249 0.0 0.0 0.00 0.81 0.81 95 1016.9
20260905023614 73 241 0.0 0.0 0.00 0.81 0.81 95 1016.6
20260905023108 73 241 0.0 0.0 0.00 0.81 0.81 95 1016.5
20260905022607 73 239 0.0 0.0 0.00 0.81 0.81 95 1016.4
20260905022103 73 237 0.0 0.0 0.00 0.81 0.81 95 1016.5
20260905021602 73 239 0.0 0.0 0.00 0.81 0.81 95 1016.9
20260905021058 73 241 0.0 0.0 0.00 0.81 0.81 95 1016.7
20260905020557 72 245 0.0 0.0 0.00 0.81 0.81 95 1016.9
20260905020053 72 242 0.0 0.0 0.00 0.81 0.81 95 1016.6
20260905015551 72 242 0.0 0.0 0.00 0.81 0.81 94 1016.6
20260905015046 73 242 0.0 0.0 0.00 0.81 0.81 94 1016.5
20260905014540 73 241 0.0 0.0 0.00 0.81 0.81 94 1016.5
20260905014036 73 241 0.0 0.0 0.00 0.81 0.81 94 1016.9
20260905013531 73 233 0.0 0.0 0.00 0.81 0.81 94 1016.9
20260905013027 73 242 0.0 0.0 0.00 0.81 0.81 93 1016.9
20260905012521 73 242 0.0 0.0 0.00 0.81 0.81 93 1016.9
20260905012019 73 242 0.0 0.0 0.00 0.81 0.81 92 1016.6
20260905011515 73 242 0.0 0.0 0.00 0.81 0.81 92 1016.6
20260905011010 74 242 0.0 0.0 0.00 0.81 0.81 91 1016.7
20260905010509 74 242 0.0 0.0 0.00 0.81 0.81 90 1016.7
20260905010006 74 242 0.0 0.0 0.00 0.81 0.81 90 1016.5
20260905005501 75 240 0.0 0.0 0.00 0.81 0.81 89 1016.6
20260905004956 75 246 0.0 0.0 0.00 0.81 0.81 89 1016.4
20260905004451 75 246 0.0 0.0 0.00 0.81 0.81 89 1016.5
20260905003946 75 240 0.0 0.0 0.00 0.81 0.81 88 1016.5
20260905003442 75 245 0.0 0.0 0.00 0.81 0.81 89 1016.6
20260905002938 75 247 0.0 0.0 0.00 0.81 0.81 89 1016.5
20260905002437 75 248 0.0 0.0 0.00 0.81 0.81 89 1016.6
20260905001931 75 252 0.0 0.0 0.00 0.81 0.81 88 1016.5
20260905001427 75 252 0.0 1.0 0.00 0.81 0.81 88 1016.5
20260905000921 76 247 0.0 0.0 0.00 0.81 0.81 87 1016.5
20260905000417 76 246 0.0 0.0 0.00 0.81 0.81 87 1016.4
20260904235912 76 249 0.0 0.0 0.00 0.81 0.81 86 1016.4
20260904235408 76 247 0.0 0.0 0.00 0.81 0.81 86 1016.2
20260904234907 77 250 0.0 0.0 0.00 0.81 0.81 85 1016.3
20260904234402 77 256 0.0 0.0 0.00 0.81 0.81 84 1016.4
20260904233858 77 256 0.0 0.0 0.00 0.81 0.81 84 1016.2
20260904233353 77 256 0.0 0.0 0.00 0.81 0.81 84 1016.2
20260904232850 77 252 0.0 0.0 0.00 0.81 0.81 84 1016.2
20260904232346 77 218 0.0 0.0 0.00 0.81 0.81 84 1016.2
20260904231842 77 256 0.0 0.0 0.00 0.81 0.81 84 1016.2
20260904231342 77 261 0.0 2.0 0.00 0.81 0.81 84 1016.1
20260904230837 78 265 0.0 1.0 0.00 0.81 0.81 83 1016.1
20260904230336 78 255 0.0 2.0 0.00 0.81 0.81 83 1016.1
20260904225832 78 259 0.0 1.0 0.00 0.81 0.81 83 1016.0
20260904225330 78 263 0.0 1.0 0.00 0.81 0.81 83 1016.2
20260904224829 78 256 0.0 0.0 0.00 0.81 0.81 83 1015.8
20260904224325 78 252 0.0 0.0 0.00 0.81 0.81 83 1016.0
20260904223824 77 289 0.0 0.0 0.00 0.81 0.81 83 1015.5
20260904223318 77 254 0.0 0.0 0.00 0.81 0.81 84 1015.6
20260904222815 77 267 0.0 1.0 0.00 0.81 0.81 84 1015.8
20260904222310 77 262 0.0 1.0 0.00 0.81 0.81 84 1015.8
20260904221805 77 256 0.0 0.0 0.00 0.81 0.81 84 1015.8
20260904221305 77 266 0.0 1.0 0.00 0.81 0.81 83 1015.6
20260904220801 77 254 1.0 2.0 0.00 0.81 0.81 83 1015.7
20260904220259 78 261 0.0 0.0 0.00 0.81 0.81 84 1015.7
20260904215755 77 280 2.0 2.0 0.00 0.81 0.81 83 1015.5
20260904215250 77 277 1.0 2.0 0.00 0.81 0.81 84 1015.6
20260904214746 77 249 1.0 2.0 0.00 0.81 0.81 84 1015.7
20260904214242 77 256 1.0 3.0 0.00 0.81 0.81 83 1015.6
20260904213739 77 250 0.0 3.0 0.00 0.81 0.81 83 1015.4
20260904213235 77 269 1.0 2.0 0.00 0.81 0.81 83 1015.5
20260904212730 77 259 1.0 2.0 0.00 0.81 0.81 83 1015.5
20260904212225 77 254 0.0 1.0 0.00 0.81 0.81 84 1015.3
20260904211725 77 283 0.0 2.0 0.00 0.81 0.81 83 1015.3
20260904211215 77 216 0.0 2.0 0.00 0.81 0.81 84 1015.4
20260904210715 77 266 1.0 2.0 0.00 0.81 0.81 84 1015.3
20260904210210 77 288 2.0 3.0 0.00 0.81 0.81 84 1015.4
20260904205705 77 303 1.0 3.0 0.00 0.81 0.81 85 1015.4
20260904205156 77 258 1.0 1.0 0.00 0.81 0.81 85 1015.2
20260904204652 77 264 1.0 3.0 0.00 0.81 0.81 85 1015.1
20260904204148 77 250 1.0 2.0 0.00 0.81 0.81 85 1015.1
20260904203644 77 267 2.0 2.0 0.00 0.81 0.81 85 1015.1
20260904203140 77 258 1.0 2.0 0.00 0.81 0.81 85 1015.0
20260904202635 76 260 1.0 1.0 0.00 0.81 0.81 86 1014.7
20260904202132 76 233 1.0 1.0 0.00 0.81 0.81 87 1014.9
20260904201631 76 257 1.0 3.0 0.00 0.81 0.81 87 1015.0
20260904201126 76 254 1.0 2.0 0.00 0.81 0.81 87 1014.9
20260904200621 76 270 1.0 2.0 0.00 0.81 0.81 87 1015.0
20260904200116 77 212 0.0 2.0 0.00 0.81 0.81 87 1015.1
20260904195614 76 232 0.0 2.0 0.00 0.81 0.81 87 1015.3
20260904195108 77 231 1.0 1.0 0.00 0.81 0.81 87 1015.3
20260904194607 76 259 1.0 1.0 0.00 0.81 0.81 88 1015.3
20260904194102 76 259 0.0 1.0 0.00 0.81 0.81 87 1015.5
20260904193557 76 265 1.0 5.0 0.00 0.81 0.81 88 1015.5
20260904193054 76 254 1.0 1.0 0.00 0.81 0.81 89 1015.7
20260904192554 75 261 0.0 1.0 0.00 0.81 0.81 89 1015.7
20260904192049 75 300 1.0 2.0 0.00 0.81 0.81 90 1016.0
20260904191546 74 254 0.0 3.0 0.00 0.81 0.81 94 1016.0
20260904191042 74 287 0.0 1.0 0.00 0.81 0.81 96 1016.1
20260904190537 73 259 0.0 2.0 0.00 0.81 0.81 98 1016.1
20260904190034 73 321 1.0 2.0 0.00 0.81 0.81 99 1015.9
20260904185530 73 265 1.0 2.0 0.00 0.81 0.81 99 1016.1
20260904185024 72 259 0.0 1.0 0.00 0.81 0.81 99 1016.0
20260904184519 72 256 1.0 2.0 0.00 0.81 0.81 99 1016.2
20260904184014 72 228 2.0 2.0 0.00 0.81 0.81 99 1016.5
20260904183509 72 261 0.0 1.0 0.00 0.81 0.81 99 1016.6
20260904183005 72 266 1.0 2.0 0.00 0.81 0.81 99 1016.9
20260904182500 72 284 1.0 5.0 0.00 0.81 0.81 99 1017.2
20260904181959 72 266 0.0 1.0 0.00 0.81 0.81 99 1017.0
20260904181455 72 254 1.0 2.0 0.00 0.81 0.81 99 1017.0
20260904180950 72 222 0.0 2.0 0.00 0.81 0.81 99 1016.9
20260904180445 72 254 1.0 3.0 0.00 0.81 0.81 99 1016.7
20260904175944 72 252 0.0 1.0 0.00 0.81 0.81 99 1017.0
20260904175443 72 252 1.0 2.0 0.00 0.81 0.81 99 1016.9
20260904174938 72 271 0.0 1.0 0.00 0.81 0.81 99 1017.1
20260904174433 72 259 1.0 2.0 0.00 0.81 0.81 99 1017.0
20260904173930 72 267 1.0 2.0 0.00 0.81 0.81 99 1017.1
20260904173430 72 299 1.0 1.0 0.00 0.81 0.81 99 1016.7
20260904172925 71 221 1.0 2.0 0.00 0.81 0.81 99 1016.7
20260904172420 71 254 0.0 1.0 0.00 0.81 0.81 99 1017.4
20260904171909 71 227 0.0 1.0 0.00 0.81 0.81 99 1017.3
20260904171404 70 256 0.0 1.0 0.00 0.81 0.81 99 1017.5
20260904170901 71 176 1.0 1.0 0.00 0.81 0.81 99 1017.6
20260904170355 71 251 0.0 0.0 0.00 0.81 0.81 99 1017.3
20260904165850 71 261 0.0 1.0 0.00 0.81 0.81 99 1017.4
20260904165344 71 269 0.0 1.0 0.00 0.81 0.81 99 1017.6
20260904164838 70 304 0.0 1.0 0.00 0.81 0.81 99 1017.4
20260904164333 70 208 0.0 1.0 0.00 0.81 0.81 99 1017.4
20260904163829 70 266 1.0 2.0 0.00 0.81 0.81 99 1017.5
20260904163329 70 182 2.0 2.0 0.00 0.81 0.81 99 1016.9
20260904162828 70 252 0.0 1.0 0.00 0.81 0.81 99 1017.2
20260904162324 70 2 0.0 1.0 0.00 0.81 0.81 99 1017.1
20260904161820 69 252 3.0 3.0 0.07 0.81 0.81 99 1017.0
20260904161320 69 204 2.0 2.0 0.12 0.80 0.80 99 1016.9
20260904160815 69 166 3.0 5.0 0.26 0.79 0.79 99 1017.4
20260904160315 69 218 0.0 1.0 0.19 0.77 0.77 99 1018.2
20260904155810 69 237 0.0 1.0 0.17 0.75 0.75 99 1018.9
20260904155306 69 261 0.0 0.0 0.12 0.73 0.73 99 1018.7
20260904154803 69 195 0.0 0.0 0.19 0.72 0.72 99 1018.8
20260904154258 69 247 0.0 0.0 0.12 0.70 0.70 99 1019.3
20260904153753 69 262 0.0 1.0 0.12 0.69 0.69 99 1019.0
20260904153249 69 293 1.0 1.0 0.07 0.68 0.68 99 1019.0
20260904152745 69 222 0.0 0.0 0.05 0.67 0.67 99 1019.0
20260904152240 69 263 0.0 1.0 0.12 0.67 0.67 99 1019.1
20260904151735 69 250 0.0 0.0 0.07 0.66 0.66 99 1018.8
20260904151234 69 248 0.0 0.0 0.19 0.65 0.65 99 1018.5
20260904150730 69 307 0.0 0.0 0.26 0.64 0.64 99 1018.3
20260904150225 69 223 0.0 1.0 0.24 0.61 0.61 99 1018.6
20260904145723 69 229 0.0 1.0 0.24 0.59 0.59 99 1018.9
20260904145219 69 257 0.0 0.0 0.24 0.57 0.57 99 1019.0
20260904144714 69 257 0.0 0.0 0.19 0.55 0.55 99 1019.1
20260904144210 69 246 0.0 0.0 0.14 0.53 0.53 99 1019.2
20260904143705 69 248 0.0 2.0 0.07 0.52 0.52 99 1019.3
20260904143202 69 243 2.0 2.0 0.05 0.51 0.51 99 1019.5
20260904142658 69 266 0.0 1.0 0.12 0.51 0.51 99 1019.5
20260904142153 69 246 0.0 3.0 0.12 0.50 0.50 99 1019.8
20260904141648 69 256 0.0 2.0 0.12 0.49 0.49 99 1019.9
20260904141143 69 266 1.0 2.0 0.12 0.48 0.48 99 1019.9
20260904140639 70 256 3.0 3.0 0.12 0.47 0.47 99 1019.7
20260904140133 70 252 0.0 0.0 0.19 0.46 0.46 99 1019.5
20260904135632 70 245 0.0 0.0 0.12 0.45 0.45 99 1019.1
20260904135128 70 242 0.0 1.0 0.12 0.43 0.43 99 1018.8
20260904134619 70 242 3.0 3.0 0.12 0.42 0.42 99 1018.9
20260904134118 70 242 0.0 2.0 0.54 0.41 0.41 99 1019.1
20260904133613 70 242 0.0 1.0 0.54 0.39 0.39 99 1018.5
20260904133109 70 270 0.0 0.0 0.19 0.31 0.31 99 1018.7
20260904132608 70 249 0.0 1.0 0.31 0.30 0.30 99 1017.9
20260904132103 70 197 0.0 1.0 0.61 0.27 0.27 99 1017.9
20260904131602 70 278 2.0 2.0 0.73 0.24 0.24 99 1018.1
20260904131058 70 240 1.0 1.0 0.24 0.15 0.15 99 1018.7
20260904130557 70 315 1.0 3.0 0.05 0.12 0.12 99 1018.3
20260904130052 70 249 0.0 0.0 0.00 0.11 0.11 99 1018.2
20260904125550 70 256 0.0 0.0 0.00 0.11 0.11 99 1017.9
20260904125049 70 258 0.0 0.0 0.00 0.11 0.11 99 1018.0
20260904124544 70 243 0.0 0.0 0.07 0.11 0.11 99 1018.0
20260904124040 70 270 1.0 1.0 0.07 0.11 0.11 99 1018.0
20260904123540 70 270 0.0 0.0 0.05 0.10 0.10 99 1017.7
20260904123036 70 246 0.0 0.0 0.07 0.09 0.09 99 1018.0
20260904122531 70 239 0.0 0.0 0.07 0.09 0.09 99 1017.9
20260904122026 70 229 0.0 0.0 0.05 0.08 0.08 99 1017.7
20260904121521 70 242 0.0 0.0 0.05 0.08 0.08 99 1018.1
20260904121017 70 239 0.0 0.0 0.07 0.07 0.07 99 1018.1
20260904120513 70 245 0.0 1.0 0.07 0.07 0.07 99 1018.0
20260904120008 70 235 0.0 0.0 0.00 0.06 0.06 99 1017.9
20260904115504 70 214 1.0 1.0 0.00 0.06 0.06 99 1018.1
20260904115003 70 239 0.0 0.0 0.05 0.06 0.06 99 1018.0
20260904114458 70 237 0.0 0.0 0.00 0.05 0.05 99 1018.0
20260904113953 70 239 0.0 0.0 0.07 0.05 0.05 99 1018.3
20260904113452 70 229 0.0 0.0 0.07 0.05 0.05 99 1018.0
20260904112946 70 235 0.0 0.0 0.00 0.04 0.04 99 1018.1
20260904112442 70 248 0.0 0.0 0.12 0.04 0.04 99 1018.1
20260904111937 70 239 0.0 0.0 0.14 0.03 0.03 99 1018.0
20260904111433 70 242 0.0 0.0 0.07 0.02 0.02 99 1018.0
20260904110929 70 287 2.0 2.0 0.00 0.01 0.01 99 1017.8
20260904110427 70 239 0.0 0.0 0.00 0.01 0.01 99 1017.3
20260904105922 70 225 0.0 1.0 0.05 0.01 0.01 99 1017.3
20260904105417 70 229 0.0 2.0 0.05 0.01 0.01 99 1017.2
20260904104913 70 234 0.0 1.0 0.00 0.00 0.00 99 1017.0
20260904104407 69 211 1.0 1.0 0.00 0.00 0.00 99 1017.0
20260904103904 69 221 0.0 1.0 0.00 0.00 0.00 99 1017.1
20260904103405 69 115 2.0 2.0 0.00 0.00 0.00 99 1017.2
20260904102901 69 204 1.0 2.0 0.00 0.00 0.00 99 1017.4
20260904102355 69 234 0.0 0.0 0.00 0.00 0.00 99 1017.6
20260904101851 69 193 2.0 3.0 0.00 0.00 0.00 99 1017.3
20260904101348 69 202 1.0 3.0 0.00 0.00 0.00 99 1017.0
20260904100843 69 188 2.0 2.0 0.00 0.00 0.00 99 1017.0
20260904100339 69 215 1.0 1.0 0.00 0.00 0.00 99 1017.2
20260904095833 69 236 0.0 2.0 0.00 0.00 0.00 99 1016.9
20260904095328 69 229 1.0 2.0 0.00 0.00 0.00 99 1016.9
20260904094824 70 207 1.0 2.0 0.00 0.00 0.00 99 1016.3
20260904094318 70 188 2.0 2.0 0.00 0.00 0.00 99 1016.2
20260904093815 70 184 1.0 2.0 0.00 0.00 0.00 99 1016.0
20260904093315 70 212 2.0 3.0 0.00 0.00 0.00 99 1016.2
20260904092810 70 196 2.0 3.0 0.00 0.00 0.00 99 1016.2
20260904092307 70 138 3.0 3.0 0.00 0.00 0.00 99 1016.5
20260904091803 70 185 1.0 2.0 0.00 0.00 0.00 99 1016.6
20260904091303 70 108 1.0 1.0 0.00 0.00 0.00 99 1016.9
20260904090758 70 202 0.0 1.0 0.00 0.00 0.00 99 1016.9
20260904090254 70 180 1.0 1.0 0.00 0.00 0.00 99 1017.0
20260904085749 70 242 0.0 1.0 0.00 0.00 0.00 99 1017.3
20260904085244 70 201 0.0 1.0 0.00 0.00 0.00 99 1016.9
20260904084738 70 232 0.0 0.0 0.00 0.00 0.00 99 1017.0
20260904084234 70 249 1.0 1.0 0.00 0.00 0.00 99 1017.2
20260904083730 70 226 0.0 0.0 0.00 0.00 0.00 99 1017.2